EST,Max TemperatureF,Mean TemperatureF,Min TemperatureF,Max Dew PointF,MeanDew PointF,Min DewpointF,Max Humidity, Mean Humidity, Min Humidity, Max Sea Level PressureIn, Mean Sea Level PressureIn, Min Sea Level PressureIn, Max VisibilityMiles, Mean VisibilityMiles, Min VisibilityMiles, Max Wind SpeedMPH, Mean Wind SpeedMPH, Max Gust SpeedMPH,PrecipitationIn, CloudCover, Events, WindDirDegrees
2013-1-1,36,26,16,23,14,1,61,51,43,29.94,29.81,29.71,10,10,10,20,9,31,0.00,3,,286
2013-1-2,27,15,3,11,4,-4,84,59,46,30.12,30.00,29.92,10,10,10,22,5,31,0.00,2,,305
2013-1-3,23,13,3,8,-3,-10,74,49,28,30.15,30.08,29.99,10,10,10,15,9,23,0.00,1,,298
2013-1-4,37,28,19,21,17,12,77,57,50,29.97,29.89,29.81,10,10,10,17,10,28,0.00,2,,255
2013-1-5,39,28,16,22,18,12,84,59,39,30.27,30.10,29.85,10,10,9,15,6,25,0.00,2,,285
2013-1-6,39,29,19,26,23,15,91,78,55,30.22,30.04,29.95,10,8,2,13,2,18,0.00,5,Snow,239
2013-1-7,37,26,12,27,18,7,81,63,39,30.40,30.26,29.98,10,10,9,13,6,17,0.00,1,,308
2013-1-8,43,28,12,24,20,7,88,67,45,30.37,30.32,30.28,10,9,7,16,3,25,0.00,0,,241
2013-1-9,44,32,19,32,25,16,89,69,43,30.41,30.20,30.01,10,8,5,21,4,33,0.00,1,Rain,236
2013-1-10,44,37,27,26,22,21,78,52,40,30.54,30.35,30.05,10,10,10,25,15,43,0.00,0,,315
2013-1-11,37,29,21,34,27,17,100,82,59,30.53,30.35,30.21,10,8,1,4,1,,0.08,5,Rain,150
2013-1-12,41,37,33,40,36,32,100,96,92,30.22,30.17,30.13,5,2,0,4,0,,0.00,8,Fog,299
2013-1-13,50,42,35,46,39,35,100,97,83,30.15,30.09,29.99,10,3,0,12,2,21,0.00,8,Fog,143
2013-1-14,57,48,39,48,41,24,100,80,44,30.27,30.02,29.87,10,7,0,17,3,26,0.01,5,Fog,268
2013-1-15,41,34,28,25,23,21,82,62,45,30.33,30.28,30.25,10,10,10,7,3,,0.00,1,,322
2013-1-16,35,32,28,32,28,24,100,89,73,30.25,29.99,29.81,10,4,0,7,1,,0.30,8,Fog-Rain-Snow,343
2013-1-17,39,34,28,30,22,8,85,62,43,30.11,29.97,29.83,10,10,10,13,6,31,0.00,1,,294
2013-1-18,27,22,16,7,0,-4,56,42,31,30.44,30.32,30.09,10,10,10,21,9,31,0.00,2,,305
2013-1-19,45,33,21,27,18,5,65,49,39,30.34,30.09,29.87,10,10,10,17,8,32,0.00,2,,183
2013-1-20,51,40,27,28,21,7,68,49,30,29.93,29.73,29.54,10,10,10,25,12,40,0.00,1,,248
2013-1-21,27,23,19,19,10,2,88,62,39,30.09,29.96,29.81,10,8,2,16,6,26,0.01,6,Snow,247
2013-1-22,21,16,10,18,5,-6,88,61,34,30.08,29.89,29.77,10,10,9,22,6,30,0.00,2,,290
2013-1-23,15,10,5,0,-9,-12,67,44,31,30.15,30.11,30.07,10,10,3,21,8,29,0.00,0,Snow,278
2013-1-24,19,10,1,-9,-12,-14,52,39,26,30.24,30.14,30.09,10,10,10,23,9,33,0.00,0,,303
2013-1-25,23,15,7,10,-7,-12,74,39,22,30.31,30.20,30.06,10,9,2,17,9,22,0.00,3,Snow,298
2013-1-26,23,16,8,10,1,-9,80,55,30,30.25,30.10,30.02,10,9,2,17,6,24,0.00,2,Snow,317
2013-1-27,30,21,12,4,-1,-3,67,45,24,30.48,30.39,30.25,10,10,10,16,8,22,0.00,0,,302
2013-1-28,28,22,16,23,16,0,93,73,37,30.46,30.20,30.02,10,5,0,10,2,,0.12,8,Fog-Rain-Snow,136
2013-1-29,33,28,23,32,26,19,96,87,79,30.19,30.13,30.02,10,7,2,5,2,,0.03,8,Rain-Snow,131
2013-1-30,59,46,33,55,41,32,100,93,83,30.14,29.80,29.42,10,4,0,14,3,22,0.09,8,Fog-Rain,166
2013-1-31,60,44,28,57,36,12,90,69,34,29.60,29.23,28.97,10,8,2,29,17,46,0.74,6,Rain,249